| time (UTC) | temp F | wind direction | speed MPH | gust MPH | rain 1hr in | rain 24hr in | rain mn in | humidity % | barometer mb |
| 20260504190640 | 79 | 151 | 17.0 | 20.0 | 0.00 | 0.00 | 0.00 | 51 | 1010.7 |
| 20260504190137 | 79 | 168 | 14.0 | 21.0 | 0.00 | 0.00 | 0.00 | 50 | 1010.5 |
| 20260504185633 | 79 | 170 | 6.0 | 18.0 | 0.00 | 0.00 | 0.00 | 51 | 1010.7 |
| 20260504185130 | 78 | 150 | 7.0 | 23.0 | 0.00 | 0.00 | 0.00 | 51 | 1010.8 |
| 20260504184626 | 79 | 162 | 9.0 | 17.0 | 0.00 | 0.00 | 0.00 | 50 | 1010.9 |
| 20260504184121 | 78 | 150 | 13.0 | 22.0 | 0.00 | 0.00 | 0.00 | 48 | 1011.1 |
| 20260504183618 | 78 | 166 | 11.0 | 21.0 | 0.00 | 0.00 | 0.00 | 49 | 1011.0 |
| 20260504183116 | 78 | 155 | 13.0 | 25.0 | 0.00 | 0.00 | 0.00 | 48 | 1011.2 |
| 20260504182614 | 78 | 194 | 18.0 | 20.0 | 0.00 | 0.00 | 0.00 | 47 | 1011.4 |
| 20260504182111 | 78 | 167 | 13.0 | 17.0 | 0.00 | 0.00 | 0.00 | 47 | 1011.3 |
| 20260504181608 | 78 | 176 | 6.0 | 15.0 | 0.00 | 0.00 | 0.00 | 46 | 1011.3 |
| 20260504181105 | 78 | 127 | 10.0 | 24.0 | 0.00 | 0.00 | 0.00 | 48 | 1011.3 |
| 20260504180604 | 77 | 155 | 18.0 | 23.0 | 0.00 | 0.00 | 0.00 | 46 | 1011.4 |
| 20260504180103 | 78 | 164 | 18.0 | 18.0 | 0.00 | 0.00 | 0.00 | 47 | 1011.5 |
| 20260504175600 | 77 | 142 | 18.0 | 23.0 | 0.00 | 0.00 | 0.00 | 47 | 1011.8 |
| 20260504175056 | 77 | 140 | 17.0 | 20.0 | 0.00 | 0.00 | 0.00 | 49 | 1011.8 |
| 20260504174555 | 77 | 187 | 12.0 | 23.0 | 0.00 | 0.00 | 0.00 | 49 | 1011.7 |
| 20260504174051 | 77 | 152 | 12.0 | 17.0 | 0.00 | 0.00 | 0.00 | 49 | 1011.9 |
| 20260504173548 | 77 | 174 | 11.0 | 22.0 | 0.00 | 0.00 | 0.00 | 49 | 1012.0 |
| 20260504173045 | 76 | 178 | 8.0 | 27.0 | 0.00 | 0.00 | 0.00 | 51 | 1011.9 |
| 20260504172541 | 76 | 139 | 15.0 | 21.0 | 0.00 | 0.00 | 0.00 | 52 | 1012.0 |
| 20260504172038 | 75 | 150 | 15.0 | 24.0 | 0.00 | 0.00 | 0.00 | 51 | 1012.2 |
| 20260504171535 | 76 | 181 | 12.0 | 23.0 | 0.00 | 0.00 | 0.00 | 49 | 1012.4 |
| 20260504171032 | 75 | 124 | 15.0 | 22.0 | 0.00 | 0.00 | 0.00 | 52 | 1012.2 |
| 20260504170527 | 75 | 206 | 8.0 | 22.0 | 0.00 | 0.00 | 0.00 | 52 | 1012.4 |
| 20260504150912 | 70 | 168 | 11.0 | 20.0 | 0.00 | 0.00 | 0.00 | 64 | 1013.4 |
| 20260504150408 | 69 | 178 | 9.0 | 20.0 | 0.00 | 0.00 | 0.00 | 65 | 1013.3 |
| 20260504140835 | 66 | 154 | 12.0 | 19.0 | 0.00 | 0.00 | 0.00 | 72 | 1014.1 |
| 20260504140330 | 65 | 145 | 9.0 | 16.0 | 0.00 | 0.00 | 0.00 | 73 | 1014.1 |
| 20260504130759 | 62 | 153 | 8.0 | 12.0 | 0.00 | 0.00 | 0.00 | 78 | 1013.9 |
| 20260504130255 | 62 | 153 | 6.0 | 13.0 | 0.00 | 0.00 | 0.00 | 79 | 1014.0 |
| 20260504120219 | 59 | 158 | 7.0 | 9.0 | 0.00 | 0.00 | 0.00 | 82 | 1013.6 |
| 20260504110646 | 58 | 128 | 8.0 | 10.0 | 0.00 | 0.00 | 0.00 | 82 | 1013.5 |
| 20260504110143 | 58 | 126 | 6.0 | 9.0 | 0.00 | 0.00 | 0.00 | 82 | 1013.3 |
| 20260504100609 | 60 | 157 | 6.0 | 11.0 | 0.00 | 0.00 | 0.00 | 77 | 1013.6 |
| 20260504100107 | 60 | 163 | 6.0 | 9.0 | 0.00 | 0.00 | 0.00 | 77 | 1013.6 |
| 20260504082002 | 62 | 164 | 8.0 | 13.0 | 0.00 | 0.00 | 0.00 | 68 | 1014.0 |
| 20260504081500 | 62 | 167 | 9.0 | 12.0 | 0.00 | 0.00 | 0.00 | 67 | 1014.0 |
| 20260504080955 | 62 | 154 | 6.0 | 13.0 | 0.00 | 0.00 | 0.00 | 67 | 1014.1 |
| 20260504080452 | 62 | 155 | 7.0 | 14.0 | 0.00 | 0.00 | 0.00 | 67 | 1014.1 |
| 20260504050305 | 66 | 167 | 6.0 | 11.0 | 0.00 | 0.00 | 0.00 | 62 | 1015.9 |
| 20260504045802 | 66 | 154 | 4.0 | 8.0 | 0.00 | 0.00 | 0.00 | 62 | 1016.1 |
| 20260504045304 | 66 | 160 | 4.0 | 8.0 | 0.00 | 0.00 | 0.00 | 62 | 1016.1 |
| 20260504044800 | 66 | 174 | 6.0 | 9.0 | 0.00 | 0.00 | 0.00 | 62 | 1016.1 |
| 20260504044257 | 66 | 142 | 8.0 | 11.0 | 0.00 | 0.00 | 0.00 | 62 | 1016.0 |
| 20260504043754 | 66 | 151 | 6.0 | 10.0 | 0.00 | 0.00 | 0.00 | 61 | 1016.0 |
| 20260504043251 | 66 | 153 | 7.0 | 9.0 | 0.00 | 0.00 | 0.00 | 61 | 1016.1 |
| 20260504042749 | 66 | 143 | 5.0 | 10.0 | 0.00 | 0.00 | 0.00 | 61 | 1016.1 |
| 20260504042245 | 67 | 148 | 6.0 | 9.0 | 0.00 | 0.00 | 0.00 | 61 | 1016.1 |
| 20260504041741 | 67 | 147 | 7.0 | 10.0 | 0.00 | 0.00 | 0.00 | 60 | 1016.2 |
| 20260504041238 | 67 | 152 | 6.0 | 9.0 | 0.00 | 0.00 | 0.00 | 60 | 1016.0 |
| 20260504040734 | 67 | 193 | 4.0 | 8.0 | 0.00 | 0.00 | 0.00 | 60 | 1016.0 |
| 20260504040232 | 67 | 147 | 7.0 | 10.0 | 0.00 | 0.00 | 0.00 | 59 | 1016.1 |
| 20260504035727 | 67 | 143 | 5.0 | 9.0 | 0.00 | 0.00 | 0.00 | 58 | 1016.2 |
| 20260504035225 | 68 | 183 | 6.0 | 10.0 | 0.00 | 0.00 | 0.00 | 57 | 1016.2 |
| 20260504034722 | 68 | 154 | 6.0 | 9.0 | 0.00 | 0.00 | 0.00 | 57 | 1016.1 |
| 20260504034219 | 68 | 180 | 8.0 | 9.0 | 0.00 | 0.00 | 0.00 | 57 | 1016.2 |
| 20260504033717 | 68 | 161 | 6.0 | 10.0 | 0.00 | 0.00 | 0.00 | 57 | 1016.0 |
| 20260504033214 | 68 | 142 | 8.0 | 9.0 | 0.00 | 0.00 | 0.00 | 57 | 1016.1 |
| 20260504032711 | 68 | 169 | 4.0 | 9.0 | 0.00 | 0.00 | 0.00 | 56 | 1016.2 |
| 20260504032208 | 68 | 168 | 3.0 | 10.0 | 0.00 | 0.00 | 0.00 | 56 | 1016.2 |
| 20260504031705 | 69 | 168 | 2.0 | 10.0 | 0.00 | 0.00 | 0.00 | 56 | 1015.9 |
| 20260504031202 | 69 | 168 | 4.0 | 7.0 | 0.00 | 0.00 | 0.00 | 56 | 1015.9 |
| 20260504030658 | 69 | 157 | 7.0 | 11.0 | 0.00 | 0.00 | 0.00 | 55 | 1015.7 |
| 20260504030155 | 69 | 163 | 5.0 | 9.0 | 0.00 | 0.00 | 0.00 | 55 | 1015.9 |
| 20260504025651 | 69 | 142 | 7.0 | 8.0 | 0.00 | 0.00 | 0.00 | 55 | 1015.8 |
| 20260504025148 | 69 | 151 | 6.0 | 9.0 | 0.00 | 0.00 | 0.00 | 55 | 1016.1 |
| 20260504024646 | 69 | 151 | 7.0 | 9.0 | 0.00 | 0.00 | 0.00 | 55 | 1015.8 |
| 20260504024142 | 69 | 152 | 7.0 | 10.0 | 0.00 | 0.00 | 0.00 | 54 | 1016.0 |
| 20260504023639 | 69 | 158 | 9.0 | 10.0 | 0.00 | 0.00 | 0.00 | 54 | 1016.1 |
| 20260504023135 | 69 | 165 | 4.0 | 9.0 | 0.00 | 0.00 | 0.00 | 54 | 1015.9 |
| 20260504022631 | 70 | 140 | 6.0 | 9.0 | 0.00 | 0.00 | 0.00 | 53 | 1015.9 |
| 20260504022127 | 70 | 170 | 6.0 | 8.0 | 0.00 | 0.00 | 0.00 | 54 | 1016.1 |
| 20260504021626 | 70 | 162 | 5.0 | 8.0 | 0.00 | 0.00 | 0.00 | 53 | 1016.0 |
| 20260504021121 | 70 | 144 | 5.0 | 8.0 | 0.00 | 0.00 | 0.00 | 52 | 1015.8 |
| 20260504020619 | 70 | 155 | 5.0 | 7.0 | 0.00 | 0.00 | 0.00 | 52 | 1015.8 |
| 20260504020115 | 71 | 138 | 6.0 | 10.0 | 0.00 | 0.00 | 0.00 | 52 | 1015.8 |
| 20260504015612 | 71 | 159 | 4.0 | 10.0 | 0.00 | 0.00 | 0.00 | 52 | 1015.8 |
| 20260504015108 | 71 | 156 | 6.0 | 9.0 | 0.00 | 0.00 | 0.00 | 51 | 1015.8 |
| 20260504014604 | 71 | 137 | 6.0 | 11.0 | 0.00 | 0.00 | 0.00 | 50 | 1015.8 |
| 20260504014101 | 71 | 156 | 4.0 | 6.0 | 0.00 | 0.00 | 0.00 | 51 | 1015.9 |
| 20260504013558 | 72 | 160 | 6.0 | 9.0 | 0.00 | 0.00 | 0.00 | 48 | 1015.6 |
| 20260504013055 | 73 | 159 | 5.0 | 10.0 | 0.00 | 0.00 | 0.00 | 48 | 1015.8 |
| 20260504012553 | 73 | 131 | 7.0 | 9.0 | 0.00 | 0.00 | 0.00 | 48 | 1015.7 |
| 20260504012051 | 73 | 177 | 6.0 | 10.0 | 0.00 | 0.00 | 0.00 | 47 | 1015.8 |
| 20260504011547 | 73 | 164 | 7.0 | 9.0 | 0.00 | 0.00 | 0.00 | 46 | 1015.6 |
| 20260504011043 | 74 | 161 | 7.0 | 10.0 | 0.00 | 0.00 | 0.00 | 45 | 1015.7 |
| 20260504010539 | 74 | 153 | 8.0 | 13.0 | 0.00 | 0.00 | 0.00 | 44 | 1015.6 |
| 20260504010035 | 75 | 158 | 8.0 | 11.0 | 0.00 | 0.00 | 0.00 | 45 | 1015.5 |
| 20260504005532 | 74 | 147 | 9.0 | 12.0 | 0.00 | 0.00 | 0.00 | 44 | 1015.6 |
| 20260504005030 | 75 | 149 | 7.0 | 10.0 | 0.00 | 0.00 | 0.00 | 44 | 1015.6 |
| 20260504004527 | 75 | 161 | 6.0 | 8.0 | 0.00 | 0.00 | 0.00 | 43 | 1015.6 |
| 20260504004024 | 76 | 158 | 5.0 | 7.0 | 0.00 | 0.00 | 0.00 | 42 | 1015.6 |
| 20260504003520 | 76 | 180 | 5.0 | 8.0 | 0.00 | 0.00 | 0.00 | 39 | 1015.5 |
| 20260504003017 | 77 | 164 | 5.0 | 11.0 | 0.00 | 0.00 | 0.00 | 38 | 1015.6 |
| 20260504002514 | 77 | 196 | 9.0 | 12.0 | 0.00 | 0.00 | 0.00 | 38 | 1015.7 |
| 20260504002012 | 77 | 163 | 7.0 | 13.0 | 0.00 | 0.00 | 0.00 | 39 | 1015.7 |
| 20260504001509 | 77 | 144 | 7.0 | 13.0 | 0.00 | 0.00 | 0.00 | 38 | 1015.6 |
| 20260504001005 | 78 | 195 | 9.0 | 14.0 | 0.00 | 0.00 | 0.00 | 37 | 1015.8 |
| 20260504000502 | 78 | 134 | 8.0 | 14.0 | 0.00 | 0.00 | 0.00 | 38 | 1015.8 |
| 20260503235959 | 78 | 160 | 7.0 | 13.0 | 0.00 | 0.00 | 0.00 | 38 | 1015.9 |
| 20260503235458 | 78 | 162 | 10.0 | 16.0 | 0.00 | 0.00 | 0.00 | 37 | 1015.9 |
| 20260503234954 | 79 | 144 | 9.0 | 11.0 | 0.00 | 0.00 | 0.00 | 38 | 1015.8 |
| 20260503234452 | 79 | 175 | 10.0 | 13.0 | 0.00 | 0.00 | 0.00 | 40 | 1015.9 |
| 20260503233950 | 79 | 160 | 9.0 | 13.0 | 0.00 | 0.00 | 0.00 | 38 | 1015.9 |
| 20260503233446 | 79 | 147 | 7.0 | 15.0 | 0.00 | 0.00 | 0.00 | 38 | 1016.1 |
| 20260503232942 | 79 | 152 | 11.0 | 15.0 | 0.00 | 0.00 | 0.00 | 38 | 1015.9 |
| 20260503232439 | 80 | 183 | 6.0 | 12.0 | 0.00 | 0.00 | 0.00 | 38 | 1015.8 |
| 20260503231937 | 79 | 151 | 7.0 | 12.0 | 0.00 | 0.00 | 0.00 | 38 | 1015.8 |
| 20260503231434 | 80 | 151 | 5.0 | 12.0 | 0.00 | 0.00 | 0.00 | 37 | 1016.0 |
| 20260503230931 | 80 | 259 | 6.0 | 10.0 | 0.00 | 0.00 | 0.00 | 36 | 1016.1 |
| 20260503230427 | 80 | 160 | 5.0 | 12.0 | 0.00 | 0.00 | 0.00 | 36 | 1016.0 |
| 20260503225925 | 79 | 166 | 9.0 | 16.0 | 0.00 | 0.00 | 0.00 | 36 | 1016.1 |
| 20260503225422 | 79 | 145 | 8.0 | 15.0 | 0.00 | 0.00 | 0.00 | 37 | 1016.0 |
| 20260503224917 | 80 | 157 | 9.0 | 15.0 | 0.00 | 0.00 | 0.00 | 38 | 1016.1 |
| 20260503224415 | 80 | 147 | 6.0 | 16.0 | 0.00 | 0.00 | 0.00 | 36 | 1016.1 |
| 20260503223912 | 80 | 187 | 5.0 | 13.0 | 0.00 | 0.00 | 0.00 | 38 | 1016.2 |
| 20260503223410 | 80 | 175 | 8.0 | 14.0 | 0.00 | 0.00 | 0.00 | 36 | 1016.2 |
| 20260503222910 | 80 | 188 | 14.0 | 16.0 | 0.00 | 0.00 | 0.00 | 36 | 1016.4 |
| 20260503222409 | 80 | 163 | 13.0 | 15.0 | 0.00 | 0.00 | 0.00 | 37 | 1016.3 |
| 20260503221907 | 80 | 149 | 11.0 | 17.0 | 0.00 | 0.00 | 0.00 | 38 | 1016.3 |
| 20260503221405 | 80 | 186 | 6.0 | 15.0 | 0.00 | 0.00 | 0.00 | 36 | 1016.3 |
| 20260503220901 | 81 | 188 | 7.0 | 16.0 | 0.00 | 0.00 | 0.00 | 37 | 1016.5 |
| 20260503220358 | 80 | 218 | 7.0 | 15.0 | 0.00 | 0.00 | 0.00 | 37 | 1016.5 |
| 20260503215855 | 81 | 162 | 8.0 | 11.0 | 0.00 | 0.00 | 0.00 | 38 | 1016.6 |
| 20260503215352 | 81 | 179 | 9.0 | 11.0 | 0.00 | 0.00 | 0.00 | 37 | 1016.6 |
| 20260503214849 | 81 | 170 | 9.0 | 12.0 | 0.00 | 0.00 | 0.00 | 34 | 1016.6 |
| 20260503214347 | 81 | 143 | 10.0 | 13.0 | 0.00 | 0.00 | 0.00 | 38 | 1016.5 |
| 20260503213844 | 80 | 141 | 4.0 | 14.0 | 0.00 | 0.00 | 0.00 | 39 | 1016.8 |
| 20260503213342 | 80 | 172 | 6.0 | 13.0 | 0.00 | 0.00 | 0.00 | 38 | 1016.9 |
| 20260503212838 | 81 | 163 | 9.0 | 12.0 | 0.00 | 0.00 | 0.00 | 37 | 1016.9 |
| 20260503212336 | 81 | 175 | 10.0 | 16.0 | 0.00 | 0.00 | 0.00 | 35 | 1016.9 |
| 20260503211833 | 81 | 186 | 8.0 | 15.0 | 0.00 | 0.00 | 0.00 | 36 | 1016.9 |
| 20260503211330 | 81 | 153 | 12.0 | 17.0 | 0.00 | 0.00 | 0.00 | 36 | 1016.9 |
| 20260503210825 | 80 | 149 | 7.0 | 11.0 | 0.00 | 0.00 | 0.00 | 40 | 1017.2 |
| 20260503210323 | 81 | 165 | 4.0 | 14.0 | 0.00 | 0.00 | 0.00 | 36 | 1017.3 |
| 20260503205817 | 81 | 249 | 5.0 | 11.0 | 0.00 | 0.00 | 0.00 | 36 | 1017.3 |
| 20260503205314 | 80 | 184 | 6.0 | 12.0 | 0.00 | 0.00 | 0.00 | 35 | 1017.5 |
| 20260503204811 | 80 | 145 | 8.0 | 14.0 | 0.00 | 0.00 | 0.00 | 35 | 1017.5 |
| 20260503204309 | 80 | 148 | 4.0 | 12.0 | 0.00 | 0.00 | 0.00 | 37 | 1017.7 |
| 20260503203806 | 81 | 180 | 9.0 | 14.0 | 0.00 | 0.00 | 0.00 | 35 | 1017.7 |
| 20260503203303 | 81 | 147 | 11.0 | 11.0 | 0.00 | 0.00 | 0.00 | 37 | 1017.9 |
| 20260503202800 | 81 | 214 | 3.0 | 11.0 | 0.00 | 0.00 | 0.00 | 32 | 1017.9 |
| 20260503202258 | 82 | 179 | 8.0 | 13.0 | 0.00 | 0.00 | 0.00 | 33 | 1018.0 |
| 20260503201755 | 82 | 245 | 6.0 | 12.0 | 0.00 | 0.00 | 0.00 | 34 | 1018.1 |
| 20260503201253 | 81 | 165 | 7.0 | 15.0 | 0.00 | 0.00 | 0.00 | 36 | 1018.2 |
| 20260503200750 | 82 | 143 | 11.0 | 14.0 | 0.00 | 0.00 | 0.00 | 34 | 1018.1 |
| 20260503200245 | 81 | 153 | 12.0 | 18.0 | 0.00 | 0.00 | 0.00 | 33 | 1018.2 |
| 20260503195743 | 81 | 158 | 7.0 | 15.0 | 0.00 | 0.00 | 0.00 | 35 | 1018.4 |
| 20260503195239 | 81 | 249 | 9.0 | 13.0 | 0.00 | 0.00 | 0.00 | 33 | 1018.3 |
| 20260503194737 | 80 | 213 | 6.0 | 11.0 | 0.00 | 0.00 | 0.00 | 35 | 1018.4 |
| 20260503194232 | 80 | 155 | 7.0 | 16.0 | 0.00 | 0.00 | 0.00 | 38 | 1018.7 |
| 20260503193729 | 81 | 224 | 6.0 | 11.0 | 0.00 | 0.00 | 0.00 | 36 | 1018.7 |
| 20260503193225 | 81 | 194 | 4.0 | 9.0 | 0.00 | 0.00 | 0.00 | 37 | 1018.9 |
| 20260503192721 | 81 | 171 | 10.0 | 13.0 | 0.00 | 0.00 | 0.00 | 35 | 1018.8 |
| 20260503192216 | 80 | 229 | 5.0 | 11.0 | 0.00 | 0.00 | 0.00 | 36 | 1019.0 |
| 20260503191713 | 81 | 198 | 6.0 | 9.0 | 0.00 | 0.00 | 0.00 | 37 | 1019.0 |
| 20260503191210 | 80 | 165 | 9.0 | 11.0 | 0.00 | 0.00 | 0.00 | 38 | 1019.1 |